Location: Colonia Mina de C?rbuni
(46.1667°N, 22.7167°E)
Time: 01:41:30
(UTC+00:00)

Meteor 1-27 - Pass Details

Date: 04 February 2023
Orbit: 837 x 893 km, 81.3° (Epoch: 24 March)

Event Time Altitude Azimuth Distance (km) Brightness Sun altitude
Rises 17:04:38 0° 349° (N) 3,497 7.5 -15.3°
Reaches altitude 10° 17:07:06 10° 351° (N) 2,547 6.7 -15.7°
Maximum altitude 17:12:55 80° 79° (E) 889 4.2 -16.7°
Drops below altitude 10° 17:18:35 10° 166° (SSE) 2,491 6.6 -17.7°
Sets 17:20:59 0° 168° (SSE) 3,415 7.3 -18.1°
